Atlantic City, NJ

12:27 PM EDT on October 14, 2019 (GMT -0400)
Atlantic City International

Weather History for KACY - September, 2019

Change the Weather History Date:

Monday, September 16, 2019

  Actual Average Record
Temperature  
Mean Temperature 74 °F 67 °F  
Max Temperature 84 °F 77 °F 93 °F (1991)
Min Temperature 62 °F 58 °F 42 °F (1988)
Degree Days  
Heating Degree Days 0 2  
Month to date heating degree days 0 15  
Since 1 July heating degree days 0 18  
Cooling Degree Days 8 4  
Month to date cooling degree days 135 90  
Year to date cooling degree days 1312 999  
Growing Degree Days 24 (Base 50)    
Moisture  
Dew Point 63 °F    
Average Humidity 76    
Maximum Humidity 96    
Minimum Humidity 42    
Precipitation  
Precipitation 0.00 in 0.11 in 2.43 in (1999)
Month to date precipitation 1.04 1.56  
Year to date precipitation 31.11 29.78  
Snow  
Snow 0.00 in 0.00 in 0.00 in ()
Month to date snowfall 0.0 0.0  
Since 1 July snowfall 0.0 0.0  
Since 1 September snowfall 0.0 0.0  
Snow Depth 0.00 in    
Sea Level Pressure  
Sea Level Pressure 30.05 in    
Wind  
Wind Speed 3 mph ()    
Max Wind Speed 13 mph    
Max Gust Speed 18 mph    
Visibility 7.9 miles    
Events Fog    
T = Trace of Precipitation, MM = Missing Value Source: Averaged Metar Reports

Daily Weather History Graph

Daily Weather History Graph

Search for Another Location

Airport or City:

Astronomy

Sep. 16, 2019 Rise Set
Actual Time 6:40 AM EDT 7:05 PM EDT
Civil Twilight 6:13 AM EDT 7:32 PM EDT
Nautical Twilight 5:41 AM EDT 8:04 PM EDT
Astronomical Twilight 5:09 AM EDT 8:36 PM EDT
Moon 8:39 PM EDT (9/16) 8:44 AM EDT (9/16)
Length of Visible Light 13h 19m
Length of Day
12h 25m
Waning Gibbous, 94% of the Moon is Illuminated
Sep 16
Waning Gibbous
Sep 21
Last Quarter
Sep 28
New
Oct 5
First Quarter
Oct 13
Full

Hourly Weather History & Observations

Time (EDT) Temp. Heat Index Dew Point Humidity Pressure Visibility Wind Dir Wind Speed Gust Speed Precip Events Conditions
12:22 AM 69.1 °F - 66.9 °F 93% 30.09 in 0.5 mi SSW 3.5 mph - N/A Fog Fog
12:44 AM 68.0 °F - 66.0 °F 93% 30.09 in 0.2 mi West 3.5 mph - N/A Fog Fog
12:54 AM 66.9 °F - 64.9 °F 93% 30.09 in 0.5 mi WNW 3.5 mph - N/A Fog Fog
1:01 AM 66.9 °F - 64.9 °F 93% 30.09 in 0.8 mi West 3.5 mph - N/A   Mist
1:03 AM 66.9 °F - 64.9 °F 93% 30.09 in 1.0 mi Calm Calm - N/A   Mist
1:07 AM 66.9 °F - 64.9 °F 93% 30.09 in 2.0 mi West 3.5 mph - N/A   Mostly Cloudy
1:10 AM 68.0 °F - 66.0 °F 93% 30.09 in 6.0 mi Calm Calm - N/A   Scattered Clouds
1:54 AM 66.9 °F - 64.9 °F 93% 30.08 in 7.0 mi Calm Calm - N/A   Mostly Cloudy
2:54 AM 64.0 °F - 63.0 °F 96% 30.07 in 10.0 mi Calm Calm - N/A   Clear
3:54 AM 64.9 °F - 63.0 °F 93% 30.06 in 10.0 mi Calm Calm - N/A   Scattered Clouds
4:54 AM 64.9 °F - 62.1 °F 90% 30.06 in 10.0 mi Calm Calm - N/A   Clear
5:54 AM 63.0 °F - 60.1 °F 90% 30.06 in 10.0 mi NW 3.5 mph - N/A   Partly Cloudy
6:54 AM 63.0 °F - 60.1 °F 90% 30.07 in 10.0 mi Calm Calm - N/A   Clear
7:54 AM 68.0 °F - 64.0 °F 87% 30.07 in 10.0 mi NNW 3.5 mph - N/A   Partly Cloudy
8:54 AM 73.0 °F - 62.1 °F 68% 30.08 in 10.0 mi NNW 6.9 mph - N/A   Partly Cloudy
9:54 AM 78.1 °F - 62.1 °F 58% 30.08 in 10.0 mi Calm Calm - N/A   Clear
10:54 AM 82.0 °F 82.1 °F 59.0 °F 45% 30.07 in 10.0 mi Variable 4.6 mph - N/A   Clear
11:54 AM 82.9 °F 83.2 °F 60.1 °F 46% 30.06 in 10.0 mi Calm Calm - N/A   Overcast
12:54 PM 84.9 °F 84.8 °F 60.1 °F 43% 30.04 in 10.0 mi Variable 3.5 mph - N/A   Mostly Cloudy
1:54 PM 82.9 °F 82.8 °F 59.0 °F 44% 30.02 in 10.0 mi South 6.9 mph - N/A   Partly Cloudy
2:54 PM 84.0 °F 83.8 °F 59.0 °F 43% 30.00 in 10.0 mi SE 11.5 mph - N/A   Scattered Clouds
3:54 PM 82.0 °F 81.7 °F 57.0 °F 42% 29.99 in 10.0 mi SSE 9.2 mph - N/A   Mostly Cloudy
4:54 PM 80.1 °F 80.6 °F 57.9 °F 47% 29.99 in 10.0 mi SSE 8.1 mph - N/A   Clear
5:54 PM 78.1 °F - 60.1 °F 54% 29.98 in 10.0 mi SE 6.9 mph - N/A   Mostly Cloudy
6:54 PM 75.0 °F - 62.1 °F 64% 29.99 in 10.0 mi ESE 4.6 mph - N/A   Clear
7:54 PM 73.0 °F - 64.0 °F 73% 30.01 in 10.0 mi Variable 4.6 mph - N/A   Overcast
8:54 PM 70.0 °F - 64.9 °F 84% 30.01 in 10.0 mi East 3.5 mph - N/A   Scattered Clouds
9:54 PM 70.0 °F - 64.9 °F 84% 30.02 in 10.0 mi ENE 3.5 mph - N/A   Mostly Cloudy
10:54 PM 69.1 °F - 66.0 °F 90% 30.03 in 10.0 mi Calm Calm - N/A   Scattered Clouds
11:54 PM 68.0 °F - 64.9 °F 90% 30.03 in 8.0 mi NE 3.5 mph - N/A   Mostly Cloudy